Curtis, Michigan, United States (49820)
Lat: 46.21N, Lon: 85.75W
Wx Zone: MIZ015
Local Info
Past Weather Observations for Today

NOTE: This archive is for the closest National Weather Service station to Curtis. Information may differ from the station used for current weather conditions.

Click here for Long-term Archive

Time Weather Temperature Dewpoint Humidity Pressure Winds Precip Visibility
15:54
Partly Cloudy
73°F / 23°C 55°F / 13°C 53% 29.8 in
(1009 mb)
SW 8.1 mph
(SW 13 kph)
- 10SM
15:34
Partly Cloudy
73°F / 23°C 57°F / 14°C 57% 29.8 in
(1009 mb)
SW 8.1 mph
(SW 13 kph)
- 7SM
15:15
Partly Cloudy
73°F / 23°C 57°F / 14°C 57% 29.8 in
(1009 mb)
SSE 9.2 mph
(SSE 15 kph)
- 7SM
14:54
Overcast
72°F / 22°C 55°F / 13°C 57% 29.8 in
(1009 mb)
SSW 8.1 mph
(SSW 13 kph)
- 10SM
14:34
Overcast
70°F / 21°C 55°F / 13°C 60% 29.8 in
(1009 mb)
SW 6.9 mph
(SW 11 kph)
- 10SM
14:14
Mostly Cloudy
70°F / 21°C 55°F / 13°C 60% 29.8 in
(1009 mb)
SW 6.9 mph
(SW 11 kph)
- 10SM
13:54
Partly Cloudy
70°F / 21°C 54°F / 12°C 57% 29.8 in
(1009 mb)
SSW 8.1 mph
(SSW 13 kph)
- 10SM
13:34
Partly Cloudy
72°F / 22°C 55°F / 13°C 57% 29.8 in
(1009 mb)
SSW 6.9 mph
(SSW 11 kph)
- 7SM
13:14
Partly Cloudy
72°F / 22°C 55°F / 13°C 57% 29.8 in
(1009 mb)
W 9.2 mph
(W 15 kph)
- 7SM
12:54
Partly Cloudy
72°F / 22°C 55°F / 13°C 57% 29.8 in
(1009 mb)
SSW 9.2 mph
(SSW 15 kph)
- 10SM
12:35
Clear
72°F / 22°C 55°F / 13°C 57% 29.8 in
(1009 mb)
SSW 8.1 mph
(SSW 13 kph)
- 10SM
12:14
Clear
72°F / 22°C 55°F / 13°C 57% 29.8 in
(1009 mb)
SSW 8.1 mph
(SSW 13 kph)
- 10SM
11:54
Clear
72°F / 22°C 55°F / 13°C 57% 29.83 in
(1010 mb)
W 9.2 mph
(W 15 kph)
- 10SM
11:34
Clear
70°F / 21°C 57°F / 14°C 64% 29.83 in
(1010 mb)
SSW 9.2 mph
(SSW 15 kph)
- 10SM
11:14
Clear
70°F / 21°C 57°F / 14°C 64% 29.83 in
(1010 mb)
SSW 11.5 mph
(SSW 19 kph)
- 10SM
10:54
Clear
70°F / 21°C 57°F / 14°C 64% 29.83 in
(1010 mb)
SSW 9.2 mph
(SSW 15 kph)
- 10SM
10:34
Clear
70°F / 21°C 57°F / 14°C 64% 29.83 in
(1010 mb)
SSW 8.1 mph
(SSW 13 kph)
- 10SM
10:14
Clear
68°F / 20°C 57°F / 14°C 69% 29.83 in
(1010 mb)
W 10.4 mph
(W 17 kph)
- 10SM
09:54
Clear
66°F / 19°C 59°F / 15°C 78% 29.83 in
(1010 mb)
SSW 6.9 mph
(SSW 11 kph)
- 10SM
09:34
Clear
66°F / 19°C 59°F / 15°C 78% 29.83 in
(1010 mb)
SSW 11.5 mph
(SSW 19 kph)
- 7SM
09:14
Clear
66°F / 19°C 59°F / 15°C 78% 29.83 in
(1010 mb)
SSW 6.9 mph
(SSW 11 kph)
- 10SM
08:55
Clear
64°F / 18°C 59°F / 15°C 83% 29.8 in
(1009 mb)
SSW 8.1 mph
(SSW 13 kph)
- 10SM
08:34
Clear
63°F / 17°C 57°F / 14°C 83% 29.8 in
(1009 mb)
W 11.5 mph
(W 19 kph)
- 10SM
08:14
Clear
61°F / 16°C 57°F / 14°C 88% 29.8 in
(1009 mb)
W 11.5 mph
(W 19 kph)
- 10SM
07:54
Partly Cloudy
61°F / 16°C 57°F / 14°C 88% 29.8 in
(1009 mb)
W 10.4 mph
(W 17 kph)
- 10SM
07:34
Mostly Cloudy
59°F / 15°C 57°F / 14°C 94% 29.8 in
(1009 mb)
SSW 9.2 mph
(SSW 15 kph)
- 10SM
07:14
Partly Cloudy
57°F / 14°C 55°F / 13°C 94% 29.8 in
(1009 mb)
SSW 8.1 mph
(SSW 13 kph)
- 10SM
06:54
Clear
55°F / 13°C 55°F / 13°C 100% 29.8 in
(1009 mb)
SSW 5.8 mph
(SSW 9 kph)
- 10SM
06:34
Clear
55°F / 13°C 54°F / 12°C 94% 29.77 in
(1008 mb)
SSW 5.8 mph
(SSW 9 kph)
- 10SM
06:14
Clear
54°F / 12°C 54°F / 12°C 100% 29.77 in
(1008 mb)
SSW 8.1 mph
(SSW 13 kph)
- 10SM
05:54
Clear
55°F / 13°C 55°F / 13°C 100% 29.77 in
(1008 mb)
SSW 10.4 mph
(SSW 17 kph)
- 10SM
05:34
Clear
55°F / 13°C 55°F / 13°C 100% 29.77 in
(1008 mb)
SSW 8.1 mph
(SSW 13 kph)
- 10SM
05:15
Clear
57°F / 14°C 55°F / 13°C 94% 29.77 in
(1008 mb)
SSW 8.1 mph
(SSW 13 kph)
- 10SM
04:54
Partly Cloudy
57°F / 14°C 55°F / 13°C 94% 29.77 in
(1008 mb)
SSW 8.1 mph
(SSW 13 kph)
- 10SM
04:34
Mostly Cloudy
57°F / 14°C 55°F / 13°C 94% 29.77 in
(1008 mb)
SSW 8.1 mph
(SSW 13 kph)
- 10SM
04:15
Partly Cloudy
55°F / 13°C 55°F / 13°C 100% 29.74 in
(1007 mb)
SSW 8.1 mph
(SSW 13 kph)
- 10SM
03:54
Clear
55°F / 13°C 55°F / 13°C 100% 29.74 in
(1007 mb)
SSW 8.1 mph
(SSW 13 kph)
- 10SM
03:34
Clear
55°F / 13°C 55°F / 13°C 100% 29.74 in
(1007 mb)
SSW 8.1 mph
(SSW 13 kph)
- 10SM
03:14
Clear
57°F / 14°C 55°F / 13°C 94% 29.74 in
(1007 mb)
SW 4.6 mph
(SW 7 kph)
- 10SM
02:54
Clear
57°F / 14°C 55°F / 13°C 94% 29.74 in
(1007 mb)
SSW 6.9 mph
(SSW 11 kph)
- 10SM
02:34
Clear
57°F / 14°C 57°F / 14°C 100% 29.74 in
(1007 mb)
SSW 6.9 mph
(SSW 11 kph)
- 10SM
02:14
Partly Cloudy
57°F / 14°C 57°F / 14°C 100% 29.74 in
(1007 mb)
SSW 8.1 mph
(SSW 13 kph)
- 10SM
01:54
Partly Cloudy
57°F / 14°C 57°F / 14°C 100% 29.74 in
(1007 mb)
SW 8.1 mph
(SW 13 kph)
- 10SM
01:34
Clear
59°F / 15°C 57°F / 14°C 94% 29.74 in
(1007 mb)
SW 6.9 mph
(SW 11 kph)
- 10SM
01:14
Clear
59°F / 15°C 57°F / 14°C 94% 29.74 in
(1007 mb)
SW 8.1 mph
(SW 13 kph)
- 10SM
00:54
Clear
57°F / 14°C 57°F / 14°C 100% 29.74 in
(1007 mb)
SW 8.1 mph
(SW 13 kph)
- 10SM
00:34
Clear
57°F / 14°C 57°F / 14°C 100% 29.74 in
(1007 mb)
SW 6.9 mph
(SW 11 kph)
- 10SM
00:14
Partly Cloudy
59°F / 15°C 57°F / 14°C 94% 29.74 in
(1007 mb)
SW 5.8 mph
(SW 9 kph)
- 10SM
Time Weather Temperature Dewpoint Humidity Pressure Winds Precip Visibility


Weather for websites

WeatherForYou.com, LLC is not responsible for any damages or problems caused by this service. Current weather conditions are obtained from the closest station including government and personal stations which may have varying degrees of accuracy. Weather forecasts are derived from the NOAA NDFD. Like all things, this site belongs to Jesus Christ... He just trusts me to maintain it. If you have any questions or comments email webmaster@weatherforyou.com

Copyright © 2014, WeatherForYou.com LLC. All rights reserved.